TimePST,TemperatureF,Dew PointF,Humidity,Sea Level PressureIn,VisibilityMPH,Wind Direction,Wind SpeedMPH,Gust SpeedMPH,PrecipitationIn,Events,Conditions,WindDirDegrees,DateUTC
12:02 AM,32.0,30.2,93,30.33,2.0,Calm,Calm,-,N/A,,Partly Cloudy,0,2012-11-22 08:02:00
12:09 AM,30.2,30.2,100,30.34,1.0,WNW,4.6,-,N/A,,Mist,300,2012-11-22 08:09:00
12:16 AM,32.0,30.2,93,30.34,0.5,WNW,3.5,-,N/A,Fog,Fog,290,2012-11-22 08:16:00
12:27 AM,33.8,32.0,93,30.34,0.5,NW,3.5,-,N/A,Fog,Fog,320,2012-11-22 08:27:00
12:51 AM,33.8,33.8,100,30.34,1.8,Calm,Calm,-,N/A,,Overcast,0,2012-11-22 08:51:00
12:53 AM,33.1,33.1,100,30.35,2.0,NW,3.5,-,N/A,,Overcast,310,2012-11-22 08:53:00
12:58 AM,33.8,33.8,100,30.35,0.8,WNW,3.5,-,N/A,,Mist,300,2012-11-22 08:58:00
1:20 AM,33.8,33.8,100,30.35,0.2,Calm,Calm,-,N/A,Fog,Fog,0,2012-11-22 09:20:00
1:42 AM,32.0,30.2,93,30.34,0.2,Calm,Calm,-,N/A,Fog,Fog,0,2012-11-22 09:42:00
1:53 AM,33.1,32.0,96,30.35,0.5,Calm,Calm,-,N/A,Fog,Fog,0,2012-11-22 09:53:00
2:19 AM,32.0,30.2,93,30.35,1.5,Calm,Calm,-,0.01,,Overcast,0,2012-11-22 10:19:00
2:25 AM,32.0,32.0,100,30.36,3.0,Calm,Calm,-,0.01,,Overcast,0,2012-11-22 10:25:00
2:53 AM,34.0,33.1,96,30.37,10.0,Calm,Calm,-,0.01,,Overcast,0,2012-11-22 10:53:00
3:40 AM,35.6,33.8,93,30.36,10.0,East,3.5,-,N/A,,Overcast,80,2012-11-22 11:40:00
3:53 AM,35.1,34.0,96,30.37,10.0,Calm,Calm,-,N/A,,Overcast,0,2012-11-22 11:53:00
4:18 AM,35.6,33.8,93,30.36,1.8,Calm,Calm,-,N/A,,Overcast,0,2012-11-22 12:18:00
4:36 AM,35.6,35.6,100,30.36,0.8,Calm,Calm,-,N/A,,Overcast,0,2012-11-22 12:36:00
4:53 AM,35.1,35.1,100,30.37,1.5,Calm,Calm,-,N/A,,Overcast,0,2012-11-22 12:53:00
5:34 AM,35.6,35.6,100,30.36,3.0,Calm,Calm,-,N/A,,Overcast,0,2012-11-22 13:34:00
5:53 AM,36.0,36.0,100,30.37,0.5,Calm,Calm,-,N/A,Fog,Fog,0,2012-11-22 13:53:00
6:10 AM,35.6,35.6,100,30.36,0.2,Calm,Calm,-,N/A,Fog,Fog,0,2012-11-22 14:10:00
6:53 AM,37.0,36.0,96,30.37,0.2,Calm,Calm,-,N/A,Fog,Fog,0,2012-11-22 14:53:00
7:53 AM,37.9,37.0,97,30.36,0.2,Calm,Calm,-,N/A,Fog,Fog,0,2012-11-22 15:53:00
8:34 AM,37.4,37.4,100,30.37,0.2,West,4.6,-,N/A,Fog,Fog,280,2012-11-22 16:34:00
8:53 AM,37.9,37.9,100,30.37,0.2,WNW,3.5,-,N/A,Fog,Fog,300,2012-11-22 16:53:00
9:19 AM,39.2,37.4,93,30.36,0.5,NW,3.5,-,N/A,Fog,Fog,310,2012-11-22 17:19:00
9:48 AM,39.2,37.4,93,30.35,2.0,Calm,Calm,-,N/A,,Overcast,0,2012-11-22 17:48:00
9:53 AM,39.0,39.0,100,30.36,2.0,Calm,Calm,-,N/A,,Overcast,0,2012-11-22 17:53:00
10:12 AM,39.2,39.2,100,30.35,4.0,Calm,Calm,-,N/A,,Overcast,0,2012-11-22 18:12:00
10:53 AM,41.0,39.9,96,30.35,10.0,Calm,Calm,-,N/A,,Mostly Cloudy,0,2012-11-22 18:53:00
11:17 AM,42.8,39.2,87,30.34,10.0,Calm,Calm,-,N/A,,Scattered Clouds,0,2012-11-22 19:17:00
11:53 AM,43.0,39.9,89,30.35,10.0,Calm,Calm,-,N/A,,Scattered Clouds,0,2012-11-22 19:53:00
12:53 PM,45.0,39.9,82,30.31,10.0,Calm,Calm,-,N/A,,Clear,0,2012-11-22 20:53:00
1:53 PM,46.0,39.9,79,30.32,10.0,West,4.6,-,N/A,,Clear,280,2012-11-22 21:53:00
2:53 PM,46.9,39.9,77,30.30,10.0,Calm,Calm,-,N/A,,Clear,0,2012-11-22 22:53:00
3:53 PM,45.0,39.9,82,30.31,10.0,Calm,Calm,-,N/A,,Clear,0,2012-11-22 23:53:00
4:53 PM,43.0,41.0,93,30.30,7.0,Calm,Calm,-,N/A,,Clear,0,2012-11-23 00:53:00
5:53 PM,42.1,39.9,92,30.30,10.0,Calm,Calm,-,N/A,,Clear,0,2012-11-23 01:53:00
6:53 PM,42.1,39.9,92,30.29,10.0,WNW,3.5,-,N/A,,Clear,290,2012-11-23 02:53:00
7:53 PM,42.1,39.9,92,30.28,10.0,Calm,Calm,-,N/A,,Clear,0,2012-11-23 03:53:00
8:53 PM,41.0,39.9,96,30.28,10.0,NW,3.5,-,N/A,,Clear,310,2012-11-23 04:53:00
9:53 PM,41.0,39.9,96,30.28,10.0,Calm,Calm,-,N/A,,Clear,0,2012-11-23 05:53:00
10:53 PM,37.9,37.0,97,30.28,3.0,Calm,Calm,-,N/A,,Clear,0,2012-11-23 06:53:00
11:25 PM,37.4,37.4,100,30.27,1.8,Calm,Calm,-,N/A,,Clear,0,2012-11-23 07:25:00
11:37 PM,37.4,35.6,93,30.27,3.0,Calm,Calm,-,N/A,,Clear,0,2012-11-23 07:37:00
11:53 PM,37.9,37.9,100,30.27,3.0,Calm,Calm,-,N/A,,Clear,0,2012-11-23 07:53:00
11:55 PM,37.4,37.4,100,30.27,1.5,Calm,Calm,-,N/A,,Clear,0,2012-11-23 07:55:00